"read_dt","SO2 (ppb)","flags","PMT voltage (V)","lamp voltage (V)","lamp intensity (Hz)","internal temp (C)","react chamber temp (C)","sample flow (l/min)","pres (mmHg)","SO2 bkg (ppb)","SO2 coefficient"
2014-04-04 00:00:00,2613E-2,5C000400,-0724,0944,11150,021.7,045.1,0.164,762.4,01.16,0.508
2014-04-04 00:01:00,2626E-2,5C000400,-0724,0944,11127,021.7,045.1,0.164,762.5,01.16,0.508
2014-04-04 00:02:00,2595E-2,5C000400,-0724,0944,11083,021.7,045.1,0.164,762.5,01.16,0.508
2014-04-04 00:03:00,2579E-2,5C000400,-0724,0944,11023,021.7,045.1,0.164,762.6,01.16,0.508
2014-04-04 00:04:00,2611E-2,5C000400,-0724,0944,11081,021.7,045.1,0.164,762.5,01.16,0.508
2014-04-04 00:05:00,2596E-2,5C000400,-0724,0944,11013,021.7,045.1,0.163,762.6,01.16,0.508
2014-04-04 00:06:00,2627E-2,5C000400,-0724,0944,10999,021.7,045.1,0.164,762.6,01.16,0.508
2014-04-04 00:07:00,2604E-2,5C000400,-0724,0944,11025,021.7,045.1,0.164,762.5,01.16,0.508
2014-04-04 00:08:00,2646E-2,5C000400,-0724,0944,10886,021.7,045.1,0.165,762.4,01.16,0.508
2014-04-04 00:09:00,2576E-2,5C000400,-0724,0943,11212,021.7,045.1,0.163,762.4,01.16,0.508
2014-04-04 00:10:00,2607E-2,5C000400,-0724,0943,11089,021.7,045.1,0.164,762.4,01.16,0.508
2014-04-04 00:11:00,2609E-2,5C000400,-0724,0943,11149,021.7,045.1,0.163,762.4,01.16,0.508
2014-04-04 00:12:00,2595E-2,5C000400,-0724,0943,11036,021.7,045.1,0.164,762.3,01.16,0.508
2014-04-04 00:13:00,2554E-2,5C000400,-0724,0943,10953,021.7,045.1,0.164,762.4,01.16,0.508
2014-04-04 00:14:00,2620E-2,5C000400,-0724,0943,11125,021.7,045.1,0.163,762.5,01.16,0.508
2014-04-04 00:15:00,2590E-2,5C000400,-0724,0944,11177,021.7,045.1,0.163,762.4,01.16,0.508
2014-04-04 00:16:00,2563E-2,5C000400,-0724,0943,11066,021.7,045.1,0.164,762.3,01.16,0.508
2014-04-04 00:17:00,2575E-2,5C000400,-0724,0942,11210,021.7,045.1,0.163,762.4,01.16,0.508
2014-04-04 00:18:00,2595E-2,5C000400,-0724,0942,11106,021.8,045.1,0.163,762.4,01.16,0.508
2014-04-04 00:19:00,2585E-2,5C000400,-0724,0942,10947,021.7,045.1,0.163,762.4,01.16,0.508
2014-04-04 00:20:00,2591E-2,5C000400,-0724,0942,10963,021.8,045.1,0.163,762.2,01.16,0.508
2014-04-04 00:21:00,2622E-2,5C000400,-0724,0943,11238,021.7,045.1,0.163,762.2,01.16,0.508
2014-04-04 00:22:00,2596E-2,5C000400,-0724,0942,11170,021.7,045.1,0.163,762.2,01.16,0.508
2014-04-04 00:23:00,2589E-2,5C000400,-0724,0943,11077,021.7,045.1,0.163,762.3,01.16,0.508
2014-04-04 00:24:00,2575E-2,5C000400,-0724,0942,11050,021.7,045.1,0.163,762.3,01.16,0.508
2014-04-04 00:25:00,2628E-2,5C000400,-0724,0943,10843,021.7,045.1,0.163,762.2,01.16,0.508
2014-04-04 00:26:00,2541E-2,5C000400,-0724,0943,11087,021.8,045.1,0.163,762.4,01.16,0.508
2014-04-04 00:27:00,2579E-2,5C000400,-0724,0942,11108,021.8,045.1,0.163,762.2,01.16,0.508
2014-04-04 00:28:00,2597E-2,5C000400,-0724,0943,11090,021.8,045.1,0.163,762.2,01.16,0.508
2014-04-04 00:29:00,2566E-2,5C000400,-0724,0943,11066,021.8,045.1,0.163,762.3,01.16,0.508
2014-04-04 00:30:00,2578E-2,5C000400,-0724,0943,11036,021.8,045.1,0.163,762.3,01.16,0.508
2014-04-04 00:31:00,2586E-2,5C000400,-0724,0942,11097,021.8,045.1,0.163,762.3,01.16,0.508
2014-04-04 00:32:00,2560E-2,5C000400,-0724,0944,11033,021.8,045.1,0.163,762.3,01.16,0.508
2014-04-04 00:33:00,2589E-2,5C000400,-0724,0942,11021,021.8,045.1,0.163,762.3,01.16,0.508
2014-04-04 00:34:00,2609E-2,5C000400,-0724,0942,11115,021.7,045.1,0.163,762.4,01.16,0.508
2014-04-04 00:35:00,2594E-2,5C000400,-0724,0943,11122,021.8,045.1,0.164,762.3,01.16,0.508
2014-04-04 00:36:00,2560E-2,5C000400,-0724,0943,11228,021.7,045.0,0.163,762.3,01.16,0.508
2014-04-04 00:37:00,2576E-2,5C000400,-0724,0943,11075,021.7,045.1,0.163,762.3,01.16,0.508
2014-04-04 00:38:00,2583E-2,5C000400,-0724,0943,11099,021.7,045.1,0.164,762.3,01.16,0.508
2014-04-04 00:39:00,2568E-2,5C000400,-0724,0942,11231,021.8,045.1,0.163,762.1,01.16,0.508
2014-04-04 00:40:00,2579E-2,5C000400,-0724,0944,10990,021.8,045.1,0.163,762.2,01.16,0.508
2014-04-04 00:41:00,2590E-2,5C000400,-0724,0943,11101,021.8,045.1,0.163,762.2,01.16,0.508
2014-04-04 00:42:00,2580E-2,5C000400,-0724,0942,11182,021.8,045.1,0.163,762.2,01.16,0.508
2014-04-04 00:43:00,2574E-2,5C000400,-0724,0943,11077,021.8,045.1,0.160,762.2,01.16,0.508
2014-04-04 00:44:00,2627E-2,5C000400,-0724,0943,11068,021.8,045.1,0.163,762.3,01.16,0.508
2014-04-04 00:45:00,2603E-2,5C000400,-0724,0944,11229,021.8,045.0,0.163,762.4,01.16,0.508
2014-04-04 00:46:00,2596E-2,5C000400,-0724,0942,11135,021.8,045.1,0.163,762.3,01.16,0.508
2014-04-04 00:47:00,2588E-2,5C000400,-0724,0942,11132,021.7,045.1,0.163,762.2,01.16,0.508
2014-04-04 00:48:00,2612E-2,5C000400,-0724,0943,10714,021.8,045.1,0.164,762.5,01.16,0.508
2014-04-04 00:49:00,2617E-2,5C000400,-0724,0942,11234,021.8,045.1,0.163,762.3,01.16,0.508
2014-04-04 00:50:00,2602E-2,5C000400,-0724,0942,11118,021.8,045.1,0.163,762.4,01.16,0.508
2014-04-04 00:51:00,2600E-2,5C000400,-0724,0943,11097,021.8,045.1,0.163,762.3,01.16,0.508
2014-04-04 00:52:00,2620E-2,5C000400,-0724,0943,11138,021.8,045.1,0.163,762.4,01.16,0.508
2014-04-04 00:53:00,2593E-2,5C000400,-0724,0942,11046,021.8,045.1,0.163,762.5,01.16,0.508
2014-04-04 00:54:00,2595E-2,5C000400,-0724,0942,11130,021.8,045.1,0.163,762.4,01.16,0.508
2014-04-04 00:55:00,2565E-2,5C000400,-0724,0943,11118,021.8,045.1,0.163,762.3,01.16,0.508
2014-04-04 00:56:00,2571E-2,5C000400,-0724,0942,11121,021.8,045.1,0.163,762.3,01.16,0.508
2014-04-04 00:57:00,2590E-2,5C000400,-0724,0944,11202,021.8,045.1,0.163,762.3,01.16,0.508
2014-04-04 00:58:00,2575E-2,5C000400,-0724,0942,10848,021.8,045.1,0.163,762.3,01.16,0.508
2014-04-04 00:59:00,2589E-2,5C000400,-0724,0942,11018,021.8,045.1,0.163,762.4,01.16,0.508
2014-04-04 01:00:00,2618E-2,5C000400,-0724,0943,11191,021.8,045.1,0.163,762.4,01.16,0.508
2014-04-04 01:01:00,2575E-2,5C000400,-0724,0942,11063,021.8,045.1,0.163,762.5,01.16,0.508
2014-04-04 01:02:00,2645E-2,5C000400,-0724,0943,11128,021.8,045.1,0.163,762.5,01.16,0.508
2014-04-04 01:03:00,2589E-2,5C000400,-0724,0942,11070,021.8,045.1,0.163,762.4,01.16,0.508
2014-04-04 01:04:00,2563E-2,5C000400,-0724,0943,11075,021.8,045.1,0.163,762.4,01.16,0.508
2014-04-04 01:05:00,2589E-2,5C000400,-0724,0942,11218,021.8,045.1,0.163,762.4,01.16,0.508
2014-04-04 01:06:00,2640E-2,5C000400,-0724,0942,11143,021.8,045.1,0.163,762.5,01.16,0.508
2014-04-04 01:07:00,2619E-2,5C000400,-0724,0942,10959,021.8,045.1,0.163,762.4,01.16,0.508
2014-04-04 01:08:00,2596E-2,5C000400,-0724,0943,11198,021.8,045.1,0.163,762.5,01.16,0.508
2014-04-04 01:09:00,2610E-2,5C000400,-0724,0943,11201,021.8,045.1,0.163,762.5,01.16,0.508
2014-04-04 01:10:00,2587E-2,5C000400,-0724,0943,10943,021.8,045.1,0.163,762.5,01.16,0.508
2014-04-04 01:11:00,2606E-2,5C000400,-0724,0943,10988,021.8,045.1,0.163,762.5,01.16,0.508
2014-04-04 01:12:00,2600E-2,5C000400,-0724,0943,11009,021.8,045.1,0.163,762.6,01.16,0.508
2014-04-04 01:13:00,2555E-2,5C000400,-0724,0943,11079,021.8,045.1,0.163,762.6,01.16,0.508
2014-04-04 01:14:00,2580E-2,5C000400,-0724,0943,11084,021.8,045.1,0.163,762.6,01.16,0.508
2014-04-04 01:15:00,2609E-2,5C000400,-0724,0943,11196,021.9,045.1,0.163,762.5,01.16,0.508
2014-04-04 01:16:00,2569E-2,5C000400,-0724,0943,11083,021.9,045.1,0.163,762.6,01.16,0.508
2014-04-04 01:17:00,2583E-2,5C000400,-0724,0943,11237,021.9,045.1,0.163,762.5,01.16,0.508
2014-04-04 01:18:00,2590E-2,5C000400,-0724,0942,11077,021.9,045.1,0.163,762.6,01.16,0.508
2014-04-04 01:19:00,2565E-2,5C000400,-0724,0943,11075,021.9,045.1,0.163,762.5,01.16,0.508
2014-04-04 01:20:00,2582E-2,5C000400,-0724,0944,11077,021.9,045.1,0.163,762.5,01.16,0.508
2014-04-04 01:21:00,2596E-2,5C000400,-0724,0943,11124,021.9,045.1,0.163,762.5,01.16,0.508
2014-04-04 01:22:00,2570E-2,5C000400,-0724,0943,11013,021.9,045.1,0.163,762.6,01.16,0.508
2014-04-04 01:23:00,2600E-2,5C000400,-0724,0942,11075,021.9,045.1,0.163,762.6,01.16,0.508
2014-04-04 01:24:00,2628E-2,5C000400,-0724,0942,11111,021.9,045.1,0.163,762.6,01.16,0.508
2014-04-04 01:25:00,2579E-2,5C000400,-0724,0944,11190,021.9,045.1,0.163,762.6,01.16,0.508
2014-04-04 01:26:00,2575E-2,5C000400,-0724,0943,11223,021.9,045.1,0.163,762.7,01.16,0.508
2014-04-04 01:27:00,2571E-2,5C000400,-0724,0942,10890,021.9,045.1,0.163,762.7,01.16,0.508
2014-04-04 01:28:00,2612E-2,5C000400,-0724,0944,11123,021.9,045.1,0.163,762.7,01.16,0.508
2014-04-04 01:29:00,2555E-2,5C000400,-0724,0944,11180,022.0,045.1,0.163,762.6,01.16,0.508
2014-04-04 01:30:00,2567E-2,5C000400,-0724,0944,11064,021.9,045.1,0.163,762.6,01.16,0.508
2014-04-04 01:31:00,2652E-2,5C000400,-0724,0943,10983,022.0,045.1,0.163,762.6,01.16,0.508
2014-04-04 01:32:00,2591E-2,5C000400,-0724,0944,11125,022.0,045.1,0.163,762.7,01.16,0.508
2014-04-04 01:33:00,2548E-2,5C000400,-0724,0943,11032,022.0,045.1,0.163,762.5,01.16,0.508
2014-04-04 01:34:00,2619E-2,5C000400,-0724,0945,11081,022.0,045.1,0.163,762.6,01.16,0.508
2014-04-04 01:35:00,2602E-2,5C000400,-0724,0944,11011,022.0,045.1,0.163,762.5,01.16,0.508
2014-04-04 01:36:00,2602E-2,5C000400,-0724,0944,11067,022.0,045.1,0.163,762.5,01.16,0.508
2014-04-04 01:37:00,2589E-2,5C000400,-0724,0943,11190,022.0,045.1,0.163,762.6,01.16,0.508
2014-04-04 01:38:00,2601E-2,5C000400,-0724,0943,11158,022.0,045.1,0.163,762.4,01.16,0.508
2014-04-04 01:39:00,2534E-2,5C000400,-0724,0944,11140,022.0,045.1,0.163,762.5,01.16,0.508
2014-04-04 01:40:00,2595E-2,5C000400,-0724,0944,11032,022.0,045.1,0.163,762.5,01.16,0.508
2014-04-04 01:41:00,2579E-2,5C000400,-0724,0943,11153,022.0,045.1,0.163,762.5,01.16,0.508
2014-04-04 01:42:00,2549E-2,5C000400,-0724,0944,10975,022.1,045.1,0.163,762.5,01.16,0.508
2014-04-04 01:43:00,2586E-2,5C000400,-0724,0944,10964,022.1,045.1,0.163,762.5,01.16,0.508
2014-04-04 01:44:00,2585E-2,5C000400,-0724,0943,11132,022.1,045.1,0.163,762.5,01.16,0.508
2014-04-04 01:45:00,2574E-2,5C000400,-0724,0943,11113,022.1,045.1,0.163,762.3,01.16,0.508
2014-04-04 01:46:00,2554E-2,5C000400,-0724,0943,11069,022.1,045.1,0.163,762.3,01.16,0.508
2014-04-04 01:47:00,2552E-2,5C000400,-0724,0943,11025,022.1,045.1,0.163,762.3,01.16,0.508
2014-04-04 01:48:00,2557E-2,5C000400,-0724,0943,11037,022.1,045.1,0.163,762.2,01.16,0.508
2014-04-04 01:49:00,2595E-2,5C000400,-0724,0943,11073,022.1,045.1,0.163,762.5,01.16,0.508
2014-04-04 01:50:00,2586E-2,5C000400,-0724,0943,11021,022.1,045.1,0.155,762.2,01.16,0.508
2014-04-04 01:51:00,2579E-2,5C000400,-0724,0943,11111,022.1,045.1,0.162,762.3,01.16,0.508
2014-04-04 01:52:00,2586E-2,5C000400,-0724,0943,11141,022.1,045.1,0.163,762.3,01.16,0.508
2014-04-04 01:53:00,2585E-2,5C000400,-0724,0943,11164,022.2,045.1,0.163,762.3,01.16,0.508
2014-04-04 01:54:00,2591E-2,5C000400,-0724,0942,11158,022.1,045.1,0.163,762.2,01.16,0.508
2014-04-04 01:55:00,2538E-2,5C000400,-0724,0944,11138,022.2,045.1,0.163,762.2,01.16,0.508
2014-04-04 01:56:00,2570E-2,5C000400,-0724,0944,11071,022.2,045.1,0.163,762.4,01.16,0.508
2014-04-04 01:57:00,2578E-2,5C000400,-0724,0943,11187,022.2,045.1,0.162,762.2,01.16,0.508
2014-04-04 01:58:00,2585E-2,5C000400,-0724,0943,10927,022.2,045.1,0.162,762.3,01.16,0.508
2014-04-04 01:59:00,2598E-2,5C000400,-0724,0943,11197,022.2,045.1,0.162,762.2,01.16,0.508
2014-04-04 02:00:00,2609E-2,5C000400,-0724,0945,11092,022.2,045.1,0.162,762.2,01.16,0.508
2014-04-04 02:01:00,2622E-2,5C000400,-0724,0944,11140,022.2,045.1,0.162,762.1,01.16,0.508
2014-04-04 02:02:00,2602E-2,5C000400,-0724,0943,11105,022.2,045.1,0.162,762.3,01.16,0.508
2014-04-04 02:03:00,2578E-2,5C000400,-0724,0944,11105,022.2,045.1,0.162,762.3,01.16,0.508
2014-04-04 02:04:00,2566E-2,5C000400,-0724,0944,11170,022.2,045.1,0.162,762.3,01.16,0.508
2014-04-04 02:05:00,2561E-2,5C000400,-0724,0944,10994,022.2,045.1,0.162,762.3,01.16,0.508
2014-04-04 02:06:00,2578E-2,5C000400,-0724,0944,11016,022.2,045.1,0.162,762.4,01.16,0.508
2014-04-04 02:07:00,2611E-2,5C000400,-0724,0943,11242,022.3,045.1,0.162,762.3,01.16,0.508
2014-04-04 02:08:00,2553E-2,5C000400,-0724,0943,10967,022.3,045.1,0.162,762.3,01.16,0.508
2014-04-04 02:09:00,2547E-2,5C000400,-0724,0945,11226,022.3,045.1,0.162,762.4,01.16,0.508
2014-04-04 02:10:00,2572E-2,5C000400,-0724,0945,11079,022.3,045.1,0.162,762.2,01.16,0.508
2014-04-04 02:11:00,2594E-2,5C000400,-0724,0944,11049,022.3,045.1,0.162,762.2,01.16,0.508
2014-04-04 02:12:00,2549E-2,5C000400,-0724,0944,11200,022.3,045.1,0.162,762.4,01.16,0.508
2014-04-04 02:13:00,2565E-2,5C000400,-0724,0944,11038,022.3,045.1,0.162,762.2,01.16,0.508
2014-04-04 02:14:00,2590E-2,5C000400,-0724,0944,11035,022.3,045.1,0.162,762.3,01.16,0.508
2014-04-04 02:15:00,2559E-2,5C000400,-0724,0945,11221,022.4,045.1,0.162,762.3,01.16,0.508
2014-04-04 02:16:00,2622E-2,5C000400,-0724,0943,11062,022.3,045.1,0.162,762.4,01.16,0.508
2014-04-04 02:17:00,2612E-2,5C000400,-0724,0945,10993,022.4,045.1,0.162,762.4,01.16,0.508
2014-04-04 02:18:00,2546E-2,5C000400,-0724,0943,11062,022.4,045.1,0.162,762.4,01.16,0.508
2014-04-04 02:19:00,2584E-2,5C000400,-0724,0945,10952,022.4,045.1,0.162,762.4,01.16,0.508
2014-04-04 02:20:00,2601E-2,5C000400,-0724,0943,10874,022.4,045.1,0.162,762.4,01.16,0.508
2014-04-04 02:21:00,2600E-2,5C000410,-0724,0963,9691,022.4,045.1,0.162,762.3,01.16,0.508
2014-04-04 02:22:00,2693E-2,5C000400,-0724,1000,10547,022.4,045.1,0.162,762.3,01.16,0.508
2014-04-04 02:23:00,2736E-2,5C000400,-0724,0997,10659,022.4,045.1,0.162,762.3,01.16,0.508
2014-04-04 02:24:00,2714E-2,5C000400,-0724,0991,10515,022.4,045.1,0.162,762.2,01.16,0.508
2014-04-04 02:25:00,2681E-2,5C000400,-0724,0988,10739,022.4,045.1,0.162,762.1,01.16,0.508
2014-04-04 02:26:00,2695E-2,5C000400,-0724,0984,10666,022.4,045.1,0.162,762.1,01.16,0.508
2014-04-04 02:27:00,2692E-2,5C000400,-0724,0980,10724,022.4,045.1,0.162,762.1,01.16,0.508
2014-04-04 02:28:00,2694E-2,5C000400,-0724,0978,10730,022.4,045.1,0.162,762.1,01.16,0.508
2014-04-04 02:29:00,2717E-2,5C000400,-0724,0976,10723,022.4,045.1,0.162,762.1,01.16,0.508
2014-04-04 02:30:00,2678E-2,5C000400,-0724,0973,10780,022.4,045.1,0.162,762.1,01.16,0.508
2014-04-04 02:31:00,2681E-2,5C000400,-0724,0972,10958,022.4,045.1,0.162,762.1,01.16,0.508
2014-04-04 02:32:00,2687E-2,5C000400,-0724,0969,10820,022.4,045.1,0.162,762.1,01.16,0.508
2014-04-04 02:33:00,2675E-2,5C000400,-0724,0969,10666,022.5,045.1,0.162,762.0,01.16,0.508
2014-04-04 02:34:00,2621E-2,5C000400,-0724,0966,10949,022.5,045.1,0.162,762.1,01.16,0.508
2014-04-04 02:35:00,2676E-2,5C000400,-0724,0966,10874,022.5,045.1,0.162,762.0,01.16,0.508
2014-04-04 02:36:00,2636E-2,5C000400,-0724,0964,10866,022.5,045.1,0.162,762.1,01.16,0.508
2014-04-04 02:37:00,2646E-2,5C000400,-0724,0962,10808,022.5,045.1,0.162,761.9,01.16,0.508
2014-04-04 02:38:00,2617E-2,5C000400,-0724,0961,10915,022.5,045.1,0.162,762.0,01.16,0.508
2014-04-04 02:39:00,2643E-2,5C000400,-0724,0959,11001,022.5,045.1,0.162,762.0,01.16,0.508
2014-04-04 02:40:00,2624E-2,5C000400,-0724,0958,10849,022.6,045.1,0.162,761.9,01.16,0.508
2014-04-04 02:41:00,2640E-2,5C000400,-0724,0957,10980,022.6,045.1,0.161,761.9,01.16,0.508
2014-04-04 02:42:00,2613E-2,5C000400,-0724,0956,10965,022.6,045.1,0.162,761.8,01.16,0.508
2014-04-04 02:43:00,2601E-2,5C000400,-0724,0956,11128,022.6,045.1,0.161,761.8,01.16,0.508
2014-04-04 02:44:00,2621E-2,5C000400,-0724,0955,10931,022.6,045.1,0.161,761.8,01.16,0.508
2014-04-04 02:45:00,2622E-2,5C000400,-0724,0954,11049,022.6,045.1,0.161,761.9,01.16,0.508
2014-04-04 02:46:00,2626E-2,5C000400,-0724,0954,10985,022.6,045.1,0.161,761.9,01.16,0.508
2014-04-04 02:47:00,2647E-2,5C000400,-0724,0953,11031,022.6,045.1,0.161,761.7,01.16,0.508
2014-04-04 02:48:00,2615E-2,5C000400,-0724,0952,10716,022.6,045.1,0.162,761.8,01.16,0.508
2014-04-04 02:49:00,2569E-2,5C000400,-0724,0952,10854,022.6,045.1,0.162,761.7,01.16,0.508
2014-04-04 02:50:00,2586E-2,5C000400,-0724,0951,11119,022.6,045.1,0.161,761.6,01.16,0.508
2014-04-04 02:51:00,2656E-2,5C000400,-0724,0950,11040,022.6,045.1,0.161,761.6,01.16,0.508
2014-04-04 02:52:00,2617E-2,5C000400,-0724,0950,10964,022.6,045.1,0.161,761.6,01.16,0.508
2014-04-04 02:53:00,2581E-2,5C000400,-0724,0949,11080,022.6,045.1,0.161,761.6,01.16,0.508
2014-04-04 02:54:00,2588E-2,5C000400,-0724,0950,11144,022.6,045.1,0.161,761.5,01.16,0.508
2014-04-04 02:55:00,2582E-2,5C000400,-0724,0947,11003,022.6,045.1,0.161,761.5,01.16,0.508
2014-04-04 02:56:00,2584E-2,5C000400,-0724,0948,11154,022.6,045.1,0.161,761.5,01.16,0.508
2014-04-04 02:57:00,2570E-2,5C000400,-0724,0948,11142,022.6,045.1,0.161,761.4,01.16,0.508
2014-04-04 02:58:00,2575E-2,5C000400,-0724,0948,10933,022.6,045.1,0.161,761.5,01.16,0.508
2014-04-04 02:59:00,2609E-2,5C000400,-0724,0948,11089,022.6,045.1,0.161,761.4,01.16,0.508
2014-04-04 03:00:00,2602E-2,5C000400,-0724,0947,10903,022.6,045.1,0.161,761.4,01.16,0.508
2014-04-04 03:01:00,2588E-2,5C000400,-0724,0947,10868,022.6,045.1,0.161,761.6,01.16,0.508
2014-04-04 03:02:00,2551E-2,5C000400,-0724,0947,11029,022.6,045.1,0.161,761.4,01.16,0.508
2014-04-04 03:03:00,2578E-2,5C000400,-0724,0948,11095,022.6,045.1,0.161,761.4,01.16,0.508
2014-04-04 03:04:00,2596E-2,5C000400,-0724,0947,11008,022.6,045.1,0.161,761.4,01.16,0.508
2014-04-04 03:05:00,2606E-2,5C000400,-0724,0947,11074,022.6,045.1,0.161,761.4,01.16,0.508
2014-04-04 03:06:00,2600E-2,5C000400,-0724,0947,11101,022.6,045.1,0.000,761.3,01.16,0.508
2014-04-04 03:07:00,2596E-2,5C000400,-0724,0945,11069,022.6,045.1,0.161,761.4,01.16,0.508
2014-04-04 03:08:00,2554E-2,5C000400,-0724,0945,11059,022.6,045.1,0.161,761.4,01.16,0.508
2014-04-04 03:09:00,2598E-2,5C000400,-0724,0945,11155,022.6,045.1,0.161,761.2,01.16,0.508
2014-04-04 03:10:00,2575E-2,5C000400,-0724,0945,11120,022.6,045.1,0.162,761.3,01.16,0.508
2014-04-04 03:11:00,2616E-2,5C000400,-0724,0946,11116,022.6,045.1,0.161,761.4,01.16,0.508
2014-04-04 03:12:00,2617E-2,5C000400,-0724,0946,11181,022.6,045.1,0.161,761.4,01.16,0.508
2014-04-04 03:13:00,2603E-2,5C000400,-0724,0946,11101,022.6,045.1,0.161,761.3,01.16,0.508
2014-04-04 03:14:00,2568E-2,5C000400,-0724,0945,11046,022.6,045.1,0.161,761.4,01.16,0.508
2014-04-04 03:15:00,2566E-2,5C000400,-0724,0946,11161,022.6,045.1,0.161,761.4,01.16,0.508
2014-04-04 03:16:00,2600E-2,5C000400,-0724,0945,11137,022.6,045.1,0.161,761.3,01.16,0.508
2014-04-04 03:17:00,2594E-2,5C000400,-0724,0945,11147,022.6,045.1,0.161,761.3,01.16,0.508
2014-04-04 03:18:00,2559E-2,5C000400,-0724,0944,10988,022.6,045.1,0.161,761.3,01.16,0.508
2014-04-04 03:19:00,2563E-2,5C000400,-0724,0945,11089,022.6,045.1,0.161,761.3,01.16,0.508
2014-04-04 03:20:00,2584E-2,5C000400,-0724,0945,11126,022.6,045.1,0.161,761.2,01.16,0.508
2014-04-04 03:21:00,2542E-2,5C000400,-0724,0946,11228,022.6,045.1,0.161,761.3,01.16,0.508
2014-04-04 03:22:00,2588E-2,5C000400,-0724,0944,10919,022.6,045.1,0.161,761.3,01.16,0.508
2014-04-04 03:23:00,2606E-2,5C000400,-0724,0944,11147,022.6,045.1,0.161,761.3,01.16,0.508
2014-04-04 03:24:00,2592E-2,5C000400,-0724,0945,11025,022.6,045.1,0.161,761.3,01.16,0.508
2014-04-04 03:25:00,2596E-2,5C000400,-0724,0946,11090,022.6,045.1,0.161,761.3,01.16,0.508
2014-04-04 03:26:00,2570E-2,5C000400,-0724,0944,11088,022.6,045.1,0.161,761.4,01.16,0.508
2014-04-04 03:27:00,2560E-2,5C000400,-0724,0944,11139,022.6,045.1,0.161,761.4,01.16,0.508
2014-04-04 03:28:00,2574E-2,5C000400,-0724,0945,10872,022.6,045.1,0.161,761.3,01.16,0.508
2014-04-04 03:29:00,2612E-2,5C000400,-0724,0943,11001,022.6,045.1,0.162,761.4,01.16,0.508
2014-04-04 03:30:00,2592E-2,5C000400,-0724,0944,11134,022.6,045.1,0.161,761.3,01.16,0.508
2014-04-04 03:31:00,2588E-2,5C000400,-0724,0944,11082,022.6,045.1,0.161,761.4,01.16,0.508
2014-04-04 03:32:00,2570E-2,5C000400,-0724,0945,11134,022.6,045.1,0.161,761.3,01.16,0.508
2014-04-04 03:33:00,2572E-2,5C000400,-0724,0945,10919,022.6,045.1,0.161,761.4,01.16,0.508
2014-04-04 03:34:00,2601E-2,5C000400,-0724,0944,11021,022.6,045.1,0.161,761.4,01.16,0.508
2014-04-04 03:35:00,2572E-2,5C000400,-0724,0943,11020,022.6,045.1,0.161,761.4,01.16,0.508
2014-04-04 03:36:00,2643E-2,5C000400,-0724,0943,11101,022.6,045.1,0.161,761.4,01.16,0.508
2014-04-04 03:37:00,2621E-2,5C000400,-0724,0945,10995,022.6,045.1,0.161,761.3,01.16,0.508
2014-04-04 03:38:00,2545E-2,5C000400,-0724,0944,11032,022.6,045.1,0.161,761.3,01.16,0.508
2014-04-04 03:39:00,2575E-2,5C000400,-0724,0944,11107,022.6,045.1,0.161,761.4,01.16,0.508
2014-04-04 03:40:00,2623E-2,5C000400,-0724,0944,11194,022.6,045.1,0.161,761.3,01.16,0.508
2014-04-04 03:41:00,2623E-2,5C000400,-0724,0944,11092,022.6,045.1,0.161,761.2,01.16,0.508
2014-04-04 03:42:00,2608E-2,5C000400,-0724,0944,11003,022.6,045.1,0.161,761.3,01.16,0.508
2014-04-04 03:43:00,2593E-2,5C000400,-0724,0943,11110,022.6,045.1,0.161,761.3,01.16,0.508
2014-04-04 03:44:00,2590E-2,5C000400,-0724,0944,10998,022.6,045.1,0.161,761.3,01.16,0.508
2014-04-04 03:45:00,2603E-2,5C000400,-0724,0944,11084,022.6,045.1,0.161,761.3,01.16,0.508
2014-04-04 03:46:00,2566E-2,5C000400,-0724,0945,11012,022.6,045.1,0.161,761.2,01.16,0.508
2014-04-04 03:47:00,2623E-2,5C000400,-0724,0944,10912,022.6,045.1,0.150,761.1,01.16,0.508
2014-04-04 03:48:00,2590E-2,5C000400,-0724,0944,11010,022.6,045.1,0.161,761.2,01.16,0.508
2014-04-04 03:49:00,2566E-2,5C000400,-0724,0944,11224,022.6,045.1,0.161,761.2,01.16,0.508
2014-04-04 03:50:00,2574E-2,5C000400,-0724,0945,11174,022.6,045.1,0.161,761.1,01.16,0.508
2014-04-04 03:51:00,2623E-2,5C000400,-0724,0946,11062,022.6,045.1,0.161,761.1,01.16,0.508
2014-04-04 03:52:00,2595E-2,5C000400,-0724,0944,11080,022.6,045.1,0.161,761.0,01.16,0.508
2014-04-04 03:53:00,2609E-2,5C000400,-0724,0944,11043,022.6,045.1,0.161,761.1,01.16,0.508
2014-04-04 03:54:00,2587E-2,5C000400,-0724,0944,11058,022.6,045.1,0.161,761.0,01.16,0.508
2014-04-04 03:55:00,2573E-2,5C000400,-0724,0943,11114,022.6,045.1,0.161,760.9,01.16,0.508
2014-04-04 03:56:00,2594E-2,5C000400,-0724,0944,11124,022.6,045.1,0.161,760.8,01.16,0.508
2014-04-04 03:57:00,2565E-2,5C000400,-0724,0944,10939,022.6,045.1,0.161,760.9,01.16,0.508
2014-04-04 03:58:00,2569E-2,5C000400,-0724,0944,11191,022.6,045.1,0.161,760.8,01.16,0.508
2014-04-04 03:59:00,2569E-2,5C000400,-0724,0943,10992,022.6,045.1,0.161,760.9,01.16,0.508
2014-04-04 04:00:00,2571E-2,5C000400,-0724,0944,10882,022.6,045.1,0.161,760.9,01.16,0.508
2014-04-04 04:01:00,2594E-2,5C000400,-0724,0945,10880,022.6,045.1,0.161,760.9,01.16,0.508
2014-04-04 04:02:00,2579E-2,5C000400,-0724,0944,11008,022.6,045.1,0.161,760.9,01.16,0.508
2014-04-04 04:03:00,2572E-2,5C000400,-0724,0944,11054,022.7,045.1,0.143,760.9,01.16,0.508
2014-04-04 04:04:00,2581E-2,5C000400,-0724,0944,11099,022.6,045.1,0.161,760.9,01.16,0.508
2014-04-04 04:05:00,2586E-2,5C000400,-0724,0944,11161,022.6,045.1,0.161,760.8,01.16,0.508
2014-04-04 04:06:00,2632E-2,5C000400,-0724,0944,11028,022.6,045.1,0.161,760.7,01.16,0.508
2014-04-04 04:07:00,2620E-2,5C000400,-0724,0944,11218,022.6,045.1,0.161,760.9,01.16,0.508
2014-04-04 04:08:00,2586E-2,5C000400,-0724,0945,11007,022.6,045.1,0.161,760.9,01.16,0.508
2014-04-04 04:09:00,2543E-2,5C000400,-0724,0944,10976,022.6,045.1,0.161,760.7,01.16,0.508
2014-04-04 04:10:00,2569E-2,5C000400,-0724,0944,11085,022.6,045.1,0.161,760.7,01.16,0.508
2014-04-04 04:11:00,2584E-2,5C000400,-0724,0944,11186,022.6,045.1,0.161,760.8,01.16,0.508
2014-04-04 04:12:00,2562E-2,5C000400,-0724,0944,10902,022.7,045.1,0.161,760.7,01.16,0.508
2014-04-04 04:13:00,2549E-2,5C000400,-0724,0945,10793,022.7,045.1,0.161,760.8,01.16,0.508
2014-04-04 04:14:00,2579E-2,5C000400,-0724,0945,10998,022.6,045.1,0.161,760.8,01.16,0.508
2014-04-04 04:15:00,2586E-2,5C000400,-0724,0944,10990,022.6,045.1,0.161,760.7,01.16,0.508
2014-04-04 04:16:00,2574E-2,5C000400,-0724,0944,11103,022.7,045.1,0.161,760.8,01.16,0.508
2014-04-04 04:17:00,2567E-2,5C000400,-0724,0945,11174,022.7,045.1,0.161,760.9,01.16,0.508
2014-04-04 04:18:00,2587E-2,5C000400,-0724,0945,11179,022.7,045.1,0.161,760.8,01.16,0.508
2014-04-04 04:19:00,2581E-2,5C000400,-0724,0944,10905,022.7,045.1,0.161,760.9,01.16,0.508
2014-04-04 04:20:00,2584E-2,5C000400,-0724,0945,11135,022.7,045.1,0.161,760.9,01.16,0.508